Location: Shenandoah County Park
(38.9356°N, 78.4524°W)
Time: 05:28:13
(UTC-05:00)

N. Korean satellite - Pass Details

Date: 06 December 2021
Orbit: 446 x 491 km, 97.3° (Epoch: 19 January)

Event Time Altitude Azimuth Distance (km) Brightness Sun altitude
Rises 17:11:48 0° 187° (S) 2,528 10.7 -4.4°
Reaches altitude 10° 17:14:01 10° 198° (SSW) 1,645 9.9 -4.7°
Maximum altitude 17:17:12 31° 262° (W) 844 8.7 -5.3°
Drops below altitude 10° 17:20:22 10° 327° (NNW) 1,632 9.4 -5.9°
Sets 17:22:34 0° 338° (NNW) 2,503 10.2 -6.3°
